Find Starlink 32448

NORAD ID: 62206 Int'l Des: 2024-229 Owner: SPXS Country: US Constellation: starlink operational
LEOCIRCULAR

实时位置

正在加载3D地球...

关于 Starlink 32448

正在加载描述...

即将过境

Passes for default location (London). Set your location on the main map for personalized predictions.

高度历史

Loading altitude history...

两行轨道根数

1 62206U 24229Q 26121.64265463 .00032455 00000-0 11832-2 0 9999
2 62206 42.9994 331.3361 0001310 206.0895 153.9891 15.27595374 78661
Epoch: May 1, 2026 • Age: 10 hours

当前状态

高度 491.1 km
速度 7.62 km/s
星下点 -32.59°S, 55.88°W
发射日期 Dec 4, 2024
运行时间 1.4 years
类型 internet

技术详情

分类 Payload
质量 730.00 kg
干质量 700.00 kg
总质量 730.00 kg
长度 0.30 m
直径 4.10 m
跨度 29.00 m
形状 Box + pan
制造商 SPXS
平台类型 Starlink V2M
阶段状态 In Orbit
所有者/国家 SPXS/US

Most Searched